Location: Bald Rock
(37.3738°N, 119.9354°W)
Time: 22:27:04
(UTC+00:00)

Cosmos 540 Rocket - Pass Details

Date: 08 September 2024
Orbit: 737 x 749 km, 74.1° (Epoch: 12 October)

Event Time Altitude Azimuth Distance (km) Brightness Sun altitude
Rises 12:13:56 0° 346° (NNW) 3,180 6.8 -16.7°
Reaches altitude 10° 12:16:20 10° 350° (N) 2,255 6.1 -16.3°
Maximum altitude 12:21:22 58° 70° (ENE) 860 4.1 -15.3°
Drops below altitude 10° 12:26:23 10° 149° (SSE) 2,250 6.1 -14.4°
Sets 12:28:46 0° 153° (SSE) 3,171 6.8 -13.9°
